Location: *
(32.8140°S, 174.6161°E)
Time: 06:00:28
(UTC+00:00)

CZ-4B R/B - Pass Details

Date: 10 December 2019
Orbit: 488 x 651 km, 97.8° (Epoch: 23 January)

Event Time Altitude Azimuth Distance (km) Brightness Sun altitude
Rises 16:16:49 0° 13° (NNE) 2,943 6.3 -9.7°
Reaches altitude 10° 16:19:00 10° 12° (NNE) 2,050 5.5 -9.3°
Maximum altitude 16:23:31 88° 282° (WNW) 664 3.2 -8.5°
Drops below altitude 10° 16:28:05 10° 192° (SSW) 2,077 6.0 -7.8°
Sets 16:30:19 0° 192° (SSW) 2,985 6.9 -7.4°
